Weather reports worldwide

Advertisment
Inverbervie, United Kingdom (3088): temperature & dewpoint: 15.10.2017 06:00:00 - 21.10.2017 06:00:00 (BST)Inverbervie, United Kingdom (3088): temperature -20cm & temperature -100cm: 15.10.2017 06:00:00 - 21.10.2017 06:00:00 (BST)Inverbervie, United Kingdom (3088): wind speed & gusts: 15.10.2017 06:00:00 - 21.10.2017 06:00:00 (BST)Inverbervie, United Kingdom (3088): wind direction: 15.10.2017 06:00:00 - 21.10.2017 06:00:00 (BST)Inverbervie, United Kingdom (3088): reduced air pressure: 15.10.2017 06:00:00 - 21.10.2017 06:00:00 (BST)Inverbervie, United Kingdom (3088): visibility: 15.10.2017 06:00:00 - 21.10.2017 06:00:00 (BST)Inverbervie, United Kingdom (3088): precipitation: 15.10.2017 06:00:00 - 21.10.2017 06:00:00 (BST)
Date & Time tt [°C] td [°C] tt -20cm [°C] tt -100cm [°C] ff [km/h] ff [kn] fx [km/h] fx [kn] dd ppp [hPa] vv [km] rr [mm]
21.10.2017 06:00:00 - - - - - - - - - - - -
21.10.2017 05:00:00 10,1 10,1 - - 48 26 68 37 SSE 994,3 3,0 -
21.10.2017 04:00:00 10,6 9,5 - - 46 25 63 34 SSE 995,0 10 -
21.10.2017 03:00:00 10,6 10,5 - - 37 20 48 26 SSE 996,1 16 -
21.10.2017 02:00:00 11,0 11,0 - - 34 18 46 25 SE 997,0 0,1 -
21.10.2017 01:00:00 11,2 10,4 - - 26 14 - - SE 997,9 23 -
21.10.2017 00:00:00 11,0 11,0 - - 22 12 - - SSE 998,7 19 -
20.10.2017 23:00:00 11,5 11,5 - - 28 15 - - SSE 999,5 0,9 -
20.10.2017 22:00:00 10,7 10,7 - - 18 10 - - SSE 1000,2 - -
20.10.2017 21:00:00 10,8 10,8 - - 18 10 - - SSE 1000,5 2,0 0,0
20.10.2017 20:00:00 10,9 10,7 - - 16 9 - - SSE 1001,1 1,6 0,0
20.10.2017 19:00:00 11,0 10,7 - - 13 7 - - S 1001,4 40 0,0
20.10.2017 18:00:00 11,4 11,3 - - 15 8 - - SSE 1001,1 3,5 0,0
20.10.2017 17:00:00 11,8 11,5 - - 8 4 - - ESE 1001,0 9 0,0
20.10.2017 16:00:00 12,3 11,8 - - 11 6 - - E 1001,1 9 0,2
20.10.2017 15:00:00 12,9 12,3 - - 13 7 - - ENE 1000,7 7 0,0
20.10.2017 14:00:00 12,1 11,5 - - 11 6 - - E 1000,5 10 0,0
20.10.2017 13:00:00 13,8 12,2 - - 8 4 - - ENE 1000,1 29 0,0
20.10.2017 12:00:00 12,9 12,9 - - 8 4 - - WNW 999,8 35 0,0
20.10.2017 11:00:00 12,2 12,2 - - 9 5 - - W 999,2 14 0,0
20.10.2017 10:00:00 11,4 11,4 11,7 11,7 5 3 - - W 998,6 5 0,0
20.10.2017 09:00:00 11,1 11,1 - - 13 7 - - WSW 998,1 5 0,0
20.10.2017 08:00:00 11,2 11,2 - - 11 6 - - SSW 997,0 3,2 0,0
20.10.2017 07:00:00 11,5 11,5 - - 15 8 - - SSW 996,4 0,1 0,0
20.10.2017 06:00:00 11,6 11,6 - - 22 12 - - SSW 995,7 0,1 0,0
20.10.2017 05:00:00 11,7 11,7 - - 28 15 - - S 995,3 2,4 0,0
20.10.2017 04:00:00 11,9 11,9 - - 24 13 - - S 995,0 0,1 0,0
20.10.2017 03:00:00 11,9 11,9 - - 18 10 - - SSW 994,9 - 0,0
20.10.2017 02:00:00 12,0 12,0 - - 21 11 - - S 994,7 - 0,0
20.10.2017 01:00:00 12,2 12,2 - - 22 12 - - SSE 994,8 - 0,2
20.10.2017 00:00:00 12,0 12,0 - - 26 14 - - E 995,3 - 1,2
19.10.2017 23:00:00 12,0 12,0 - - 24 13 - - E 996,5 - 1,4
19.10.2017 22:00:00 11,5 11,5 - - 24 13 - - E 997,8 - 0,8
19.10.2017 21:00:00 11,6 11,6 - - 15 8 - - ESE 998,7 - 2,2
19.10.2017 20:00:00 11,6 11,6 - - 13 7 - - SE 999,7 0,1 1,2
19.10.2017 19:00:00 11,4 11,2 - - 15 8 - - SSE 1000,3 2,9 0,0
19.10.2017 18:00:00 11,2 11,0 - - 21 11 - - SSE 1000,7 3,6 0,0
19.10.2017 17:00:00 11,2 11,1 - - 16 9 - - SSE 1001,2 6 0,0
19.10.2017 16:00:00 11,4 11,3 - - 21 11 - - SSE 1001,6 8 0,0
19.10.2017 15:00:00 11,6 11,6 - - 16 9 - - SSE 1001,8 6 0,0
19.10.2017 14:00:00 11,2 11,2 - - 15 8 - - S 1002,4 7 0,0
19.10.2017 13:00:00 11,1 11,1 - - 21 11 - - S 1003,1 8 0,0
19.10.2017 12:00:00 11,4 11,4 - - 21 11 - - S 1003,6 7 0,0
19.10.2017 11:00:00 11,5 11,5 - - 21 11 - - SSE 1003,8 0,2 0,0
19.10.2017 10:00:00 11,5 11,5 11,5 11,7 24 13 - - SSE 1004,0 0,1 0,0
19.10.2017 09:00:00 11,4 11,4 - - 29 16 - - SSE 1004,5 0,2 0,0
19.10.2017 08:00:00 11,2 11,2 - - 29 16 - - SSE 1004,7 0,2 0,0
19.10.2017 07:00:00 10,9 10,8 - - 35 19 46 25 S 1005,0 11 0,0
19.10.2017 06:00:00 10,7 10,5 - - 34 18 - - SSE 1005,5 9 0,0
19.10.2017 05:00:00 10,5 10,0 - - 24 13 - - SSE 1006,2 12 0,2
19.10.2017 04:00:00 10,6 10,2 - - 28 15 - - SSE 1007,0 10 0,4
19.10.2017 03:00:00 10,7 9,7 - - 31 17 - - SSE 1007,6 22 0,0
19.10.2017 02:00:00 10,3 9,8 - - 29 16 - - SE 1008,0 18 0,0
19.10.2017 01:00:00 9,8 9,5 - - 28 15 - - SSE 1008,7 23 0,0
19.10.2017 00:00:00 9,7 8,1 - - 26 14 - - SE 1009,3 30 0,0
18.10.2017 23:00:00 9,3 7,2 - - 24 13 - - SSE 1010,3 35 0,0
18.10.2017 22:00:00 8,9 6,5 - - 15 8 - - SSE 1010,7 35 0,0
18.10.2017 21:00:00 8,9 6,7 - - 16 9 - - SE 1011,2 40 0,0
18.10.2017 20:00:00 8,7 6,8 - - 16 9 - - ESE 1011,7 35 0,0
18.10.2017 19:00:00 8,6 6,6 - - 13 7 - - ESE 1012,1 35 0,0
18.10.2017 18:00:00 8,2 6,4 - - 11 6 - - ESE 1012,5 27 0,0
18.10.2017 17:00:00 8,9 6,6 - - 9 5 - - ESE 1013,1 27 0,0
18.10.2017 16:00:00 9,3 7,0 - - 15 8 - - E 1013,6 23 0,0
18.10.2017 15:00:00 8,6 7,2 - - 21 11 - - E 1014,0 27 0,0
18.10.2017 14:00:00 9,8 6,9 - - 15 8 - - E 1014,4 22 0,0
18.10.2017 13:00:00 9,5 7,1 - - 18 10 - - ENE 1015,0 25 0,0
18.10.2017 12:00:00 10,5 6,9 - - 15 8 - - ENE 1015,3 21 0,0
18.10.2017 11:00:00 9,1 7,0 - - 9 5 - - NNE 1015,7 24 0,0
18.10.2017 10:00:00 8,0 7,5 11,7 11,7 9 5 - - N 1016,0 25 0,0
18.10.2017 09:00:00 7,3 6,8 - - 15 8 - - NNE 1016,2 14 0,0
18.10.2017 08:00:00 7,0 5,7 - - 24 13 - - NNE 1015,7 21 0,0
18.10.2017 07:00:00 7,8 5,7 - - 16 9 - - N 1015,5 30 0,0
18.10.2017 06:00:00 7,8 5,6 - - 18 10 - - NNE 1015,7 30 0,0
18.10.2017 05:00:00 7,6 6,0 - - 16 9 - - N 1015,9 15 0,0
18.10.2017 04:00:00 7,5 5,8 - - 21 11 - - N 1015,9 19 0,0
18.10.2017 03:00:00 7,2 5,8 - - 22 12 - - N 1016,0 20 0,0
18.10.2017 02:00:00 7,1 6,0 - - 18 10 - - N 1016,1 17 0,0
18.10.2017 01:00:00 6,9 5,8 - - 16 9 - - N 1016,0 21 0,0
18.10.2017 00:00:00 7,3 6,6 - - 15 8 - - NNW 1015,6 15 0,0
17.10.2017 23:00:00 7,6 7,0 - - 18 10 - - NNW 1015,0 16 0,0
17.10.2017 22:00:00 8,1 7,3 - - 24 13 - - N 1014,1 14 0,0
17.10.2017 21:00:00 8,7 7,8 - - 22 12 - - N 1013,7 45 0,0
17.10.2017 20:00:00 9,3 7,6 - - 28 15 - - NNW 1012,5 30 0,0
17.10.2017 19:00:00 9,7 7,9 - - 26 14 54 29 NNW 1011,7 45 0,0
17.10.2017 18:00:00 10,5 8,3 - - 31 17 46 25 NNW 1010,1 50 0,0
17.10.2017 17:00:00 11,0 8,5 - - 28 15 48 26 NW 1008,6 50 0,0
17.10.2017 16:00:00 11,8 8,9 - - 26 14 55 30 NW 1007,1 30 0,0
17.10.2017 15:00:00 13,6 9,9 - - 35 19 57 31 NW 1005,3 50 0,0
17.10.2017 14:00:00 14,5 11,2 - - 34 18 63 34 W 1003,5 28 0,0
17.10.2017 13:00:00 14,1 10,9 - - 41 22 67 36 W 1001,9 40 0,0
17.10.2017 12:00:00 13,5 10,7 - - 50 27 72 39 WSW 1000,9 50 0,0
17.10.2017 11:00:00 12,9 10,2 - - 52 28 68 37 WSW 999,5 45 0,0
17.10.2017 10:00:00 12,7 10,5 11,7 11,9 46 25 70 38 WSW 998,5 40 0,0
17.10.2017 09:00:00 12,0 10,2 - - 52 28 72 39 WSW 996,8 40 0,0
17.10.2017 08:00:00 12,4 10,2 - - 52 28 78 42 WSW 995,2 50 0,0
17.10.2017 07:00:00 11,6 10,2 - - 59 32 91 49 SW 993,4 50 0,0
17.10.2017 06:00:00 11,1 10,1 - - 65 35 94 51 SW 992,3 6 0,0
17.10.2017 05:00:00 11,8 9,5 - - 67 36 89 48 SSW 992,1 16 0,0
17.10.2017 04:00:00 12,2 10,2 - - 65 35 87 47 SSW 992,7 14 0,0
17.10.2017 03:00:00 12,6 10,8 - - 61 33 76 41 SSW 993,1 12 0,0
17.10.2017 02:00:00 12,1 11,0 - - 59 32 80 43 S 993,6 11 0,0
17.10.2017 01:00:00 12,0 10,9 - - 54 29 76 41 S 994,0 9 0,0
17.10.2017 00:00:00 12,2 10,2 - - 63 34 83 45 S 994,7 13 0,0
16.10.2017 23:00:00 12,4 10,0 - - 59 32 85 46 S 995,4 14 0,0
16.10.2017 22:00:00 12,7 9,8 - - 54 29 70 38 S 996,6 13 0,0
16.10.2017 21:00:00 13,2 10,1 - - 52 28 67 36 S 998,2 15 0,0
16.10.2017 20:00:00 12,5 12,5 - - 31 17 59 32 S 999,2 1,6 0,0
16.10.2017 19:00:00 12,5 12,5 - - 35 19 50 27 S 999,7 - -
16.10.2017 18:00:00 12,3 12,3 - - 29 16 55 30 SE 1001,3 - 0,2
16.10.2017 17:00:00 11,7 11,7 - - 41 22 54 29 E 1003,1 0,3 0,0
16.10.2017 16:00:00 11,5 11,5 - - 35 19 - - E 1005,3 0,9 0,0
16.10.2017 15:00:00 11,5 11,5 - - 31 17 - - E 1007,9 0,1 0,2
16.10.2017 14:00:00 11,4 11,4 - - 35 19 - - E 1009,2 0,1 0,0
16.10.2017 13:00:00 10,9 10,9 - - 34 18 - - ENE 1009,7 0,2 1,0
16.10.2017 12:00:00 10,0 10,0 - - 35 19 - - ENE 1011,9 0,5 3,2
16.10.2017 11:00:00 9,8 9,8 - - 24 13 - - E 1013,4 0,3 1,8
16.10.2017 10:00:00 9,8 9,8 11,7 11,9 26 14 - - E 1014,2 0,3 0,4
16.10.2017 09:00:00 9,6 9,6 - - 21 11 - - ENE 1014,0 10 0,2
16.10.2017 08:00:00 8,7 8,7 - - 22 12 - - NE 1013,8 0,3 1,0
16.10.2017 07:00:00 8,5 8,2 - - 15 8 - - NNE 1014,4 4,8 1,2
16.10.2017 06:00:00 9,2 8,5 - - 15 8 - - NE 1014,7 5 0,4
16.10.2017 05:00:00 9,8 7,7 - - 21 11 - - ENE 1014,2 50 0,0
16.10.2017 04:00:00 9,7 7,9 - - 15 8 - - ENE 1014,5 35 0,2
16.10.2017 03:00:00 9,9 7,6 - - 13 7 - - NE 1014,7 35 0,0
16.10.2017 02:00:00 10,1 7,3 - - 13 7 - - NE 1014,8 50 0,0
16.10.2017 01:00:00 10,2 6,8 - - 13 7 - - NNE 1014,8 45 0,0
16.10.2017 00:00:00 10,6 6,2 - - 5 3 - - N 1013,9 45 0,0
15.10.2017 23:00:00 10,5 6,5 - - 5 3 - - N 1013,5 50 0,0
15.10.2017 22:00:00 10,9 6,7 - - 15 8 - - NW 1012,6 45 0,0
15.10.2017 21:00:00 11,1 7,3 - - 16 9 - - WNW 1011,8 50 0,0
15.10.2017 20:00:00 11,9 7,5 - - 21 11 - - WNW 1011,0 50 0,0
15.10.2017 19:00:00 13,7 9,0 - - 24 13 - - W 1009,6 50 0,0
15.10.2017 18:00:00 14,7 10,7 - - 34 18 65 35 WSW 1007,9 26 0,0
15.10.2017 17:00:00 16,4 11,4 - - 50 27 72 39 WSW 1006,2 29 0,0
15.10.2017 16:00:00 15,7 12,8 - - 42 23 55 30 SW 1005,3 25 0,0
15.10.2017 15:00:00 13,7 12,4 - - 44 24 61 33 SSW 1005,6 12 0,0
15.10.2017 14:00:00 13,9 12,5 - - 50 27 61 33 SW 1005,6 15 0,0
15.10.2017 13:00:00 13,2 11,7 - - 46 25 61 33 SSW 1005,8 10 0,0
15.10.2017 12:00:00 13,2 11,6 - - 54 29 67 36 SSW 1005,8 13 0,0
15.10.2017 11:00:00 13,4 11,4 - - 54 29 65 35 SSW 1005,8 14 0,0
15.10.2017 10:00:00 12,8 11,2 11,7 11,9 52 28 63 34 SSW 1006,5 12 0,0
15.10.2017 09:00:00 13,0 11,1 - - 39 21 55 30 SSW 1007,2 16 0,0
15.10.2017 08:00:00 13,3 10,6 - - 42 23 67 36 SSW 1007,3 21 0,0
15.10.2017 07:00:00 13,8 10,5 - - 37 20 52 28 SSW 1007,3 35 0,0
15.10.2017 06:00:00 13,0 11,1 - - 35 19 50 27 S 1008,4 13 0,0

tt = temperature
td = dewpoint
tt -20cm = temperature -20cm
tt -100cm = temperature -100cm
ff = wind speed
fx = gusts
dd = wind direction
ppp = reduced air pressure
vv = visibility
rr = precipitation

Next stations